Home > Weather > Brest > Past weeks

Flag for France Past Weather in Brest, Brittany, France — Yesterday and Last 2 Weeks

Now
64 °F

Broken clouds.


Feels Like: 64 °F
Forecast: 56 / 65 °F
Wind: 9 mph from North

Location: Brest Airport

Current Time: Jul 31, 2016 at 11:43:43 AM

Latest Report: Jul 31, 2016 at 11:00 AM


Visibility: N/A

Pressure: 30.12 "Hg

Humidity: 73%

Dew Point: 55 °F

Location of BrestLocation

Past Weather in Brest — Graph

°F

Brest Temperature Yesterday

Maximum temperature yesterday: 68 °F (at 2:00 PM)
Minimum temperature yesterday: 59 °F (at 12:00 AM)
Average temperature yesterday: 62 °F

High & Low Weather Summary for the Past Weeks

 TemperatureHumidityPressure
High90 °F (Jul 18, 3:30 PM)100% (Jul 21, 1:00 AM)30.36 "Hg (Jul 21, 1:00 AM)
Low54 °F (Jul 25, 7:30 AM)38% (Jul 19, 7:00 PM)29.80 "Hg (Jul 19, 7:30 PM)
Average66 °F81%30.10 "Hg
* Reported Jul 16 10:00 AM — Jul 31 10:30 AM, Brest, Weather by CustomWeather, © 2016

Note: Actual official high and low records may vary slightly from our data, if they occured in-between our weather recording intervals... More about our weather records

Advertising

Brest Weather History for the Previous 24 Hours

Scroll right to see more
 ConditionsComfort  
Time TempWeatherWind HumidityBarometerVisibility
10:30 AM
Sun, Jul 31
63 °FPartly sunny.9 mph83%30.12 "HgN/A
10:00 AM63 °FBroken clouds.12 mph83%30.09 "HgN/A
9:30 AM63 °FPassing clouds.9 mph83%30.09 "HgN/A
9:00 AM61 °FPartly sunny.6 mph88%30.09 "HgN/A
8:30 AM57 °FPartly sunny.5 mph100%30.09 "Hg4 mi
8:00 AM57 °FFog.5 mph94%30.07 "Hg2 mi
7:30 AM55 °FFog.5 mph100%30.07 "Hg2 mi
7:00 AM55 °FFog.6 mph100%30.07 "Hg2 mi
6:30 AM55 °FFog.5 mph100%30.07 "Hg2 mi
6:00 AM55 °FFog.5 mph94%30.04 "Hg3 mi
5:30 AM55 °FFog.3 mph94%30.04 "Hg2 mi
5:00 AM55 °FFog.3 mph94%30.04 "Hg2 mi
4:30 AM55 °FClear.3 mph100%30.04 "Hg4 mi
4:00 AM55 °FClear.5 mph100%30.04 "Hg4 mi
3:30 AM55 °FFog.5 mph100%30.04 "Hg2 mi
3:00 AM57 °FClear.3 mph94%30.04 "Hg4 mi
2:30 AM57 °FClear.3 mph94%30.07 "Hg6 mi
2:00 AM55 °FMostly cloudy.1 mph100%30.07 "Hg6 mi
1:30 AM54 °FPassing clouds.2 mph100%30.07 "Hg4 mi
1:00 AM54 °FClear.2 mph100%30.04 "Hg6 mi
12:30 AM55 °FClear.No wind94%30.04 "Hg4 mi
12:00 AM57 °FClear.No wind94%30.04 "Hg10 mi
11:30 PM
Sat, Jul 30
59 °FClear.3 mph88%30.04 "Hg10 mi
11:00 PM59 °FClear.3 mph88%30.04 "Hg10 mi
10:30 PM59 °FSunny.2 mph88%30.04 "Hg10 mi
10:00 PM61 °FSunny.3 mph88%30.04 "Hg10 mi
9:30 PM63 °FBroken clouds.6 mph83%30.01 "HgN/A
9:00 PM64 °FMostly cloudy.6 mph78%30.01 "HgN/A
8:30 PM64 °FSunny.9 mph78%30.01 "Hg10 mi
8:00 PM64 °FSunny.7 mph78%30.01 "Hg10 mi
7:30 PM66 °FOvercast.8 mph73%30.01 "HgN/A
7:00 PM66 °FOvercast.9 mph73%30.01 "HgN/A
6:30 PM66 °FBroken clouds.9 mph73%30.01 "HgN/A
6:00 PM66 °FMore clouds than sun.9 mph73%30.01 "HgN/A
5:30 PM68 °FMore clouds than sun.10 mph69%30.01 "HgN/A
5:00 PM66 °FOvercast.9 mph73%30.01 "HgN/A
4:30 PM68 °FCloudy.8 mph69%30.01 "HgN/A
4:00 PM66 °FMostly cloudy.7 mph73%30.01 "HgN/A
3:30 PM66 °FCloudy.8 mph73%30.01 "HgN/A
3:00 PM68 °FCloudy.9 mph69%30.01 "HgN/A
2:30 PM66 °FBroken clouds.6 mph73%30.01 "HgN/A
2:00 PM68 °FMore clouds than sun.3 mph69%30.01 "HgN/A
1:30 PM66 °FOvercast.6 mph73%30.01 "HgN/A
1:00 PM64 °FPartly sunny.5 mph83%30.01 "HgN/A
12:30 PM66 °FMostly cloudy.6 mph78%30.01 "HgN/A
12:00 PM64 °FMostly cloudy.5 mph83%30.01 "HgN/A
11:30 AM64 °FBroken clouds.6 mph83%30.01 "HgN/A
11:00 AM64 °FMostly cloudy.5 mph83%29.98 "HgN/A
Weather by CustomWeather, © 2016

See weather overviewHow to use our weather pages